RH
35 37 32 29 28 26 29 32 34 34 31 31 33 37 45 54 62 61 59 61 63 62 62 64 64 56 48 45 45 48 51 52 52 54 52 51 50 47 46 45 45 44 42 42 44 45 47 50 52 54 56 60 62 63 64 63 66 69 73 79 78 76 78 76 73 71 72 76 79 80 81 83 83 82 82 82 79 75 72 69 65 61 61 60 53
38 38 31 29 29 26 29 32 34 34 34 33 32 40 49 54 62 63 59 61 62 60 61 60 55 50 45 44 48 51 51 52 50 48 47 48 47 46 45 40 40 46 46 45 51 51 46 49 55 53 56 63 62 61 62 59 62 67 72 78 77 74 75 74 74 72 71 74 77 79 82 85 84 81 80 80 76 71 68 67 66 64 62 60 53
38 35 30 30 28 26 29 32 34 33 34 34 34 43 50 52 59 62 60 61 59 60 61 56 50 48 47 47 51 51 48 43 39 36 38 43 45 47 50 39 33 42 48 50 55 55 48 48 53 51 56 65 64 61 58 56 60 65 69 76 77 76 77 76 76 75 75 75 76 79 81 83 83 79 77 76 73 68 66 66 67 69 66 62 59
36 33 30 30 26 25 30 34 34 30 30 34 37 45 50 52 58 59 58 57 57 60 58 51 48 47 46 48 49 46 41 34 31 30 29 32 35 42 52 53 47 45 46 51 57 58 53 50 51 52 57 64 62 57 53 54 59 62 67 74 76 77 78 79 79 79 77 75 76 81 79 76 76 76 73 71 69 68 67 68 71 71 67 63 65
34 32 31 29 25 25 31 34 32 28 30 36 44 50 51 55 57 54 53 53 56 59 53 46 46 44 42 43 41 37 37 35 33 32 28 24 23 25 31 42 55 61 58 56 54 54 53 51 52 55 58 61 60 54 50 52 56 59 68 74 75 76 75 75 79 82 83 80 78 80 75 71 71 71 70 69 71 73 71 73 74 71 67 65 68
37 34 32 28 25 27 32 32 29 29 31 38 49 53 55 58 55 50 49 50 55 56 49 45 43 39 38 37 35 34 36 36 36 36 35 32 28 25 22 22 31 44 50 53 55 57 56 52 54 59 58 56 57 55 51 53 54 58 69 74 72 74 72 72 78 83 85 84 80 78 76 74 73 72 72 74 76 75 73 74 76 73 70 68 67
40 37 33 28 26 29 32 31 30 33 33 38 49 54 57 59 54 50 48 48 54 53 46 42 36 36 38 35 35 36 36 36 36 36 37 39 39 39 38 34 28 25 23 25 33 44 53 57 61 62 59 54 56 56 54 55 57 59 68 71 69 72 72 73 79 83 84 85 82 81 80 78 77 77 77 77 76 75 74 75 76 75 73 70 69
40 36 32 30 31 34 34 31 33 37 36 39 47 54 58 60 58 56 49 47 53 51 44 36 29 33 38 36 36 36 35 35 35 36 38 40 43 44 45 46 43 38 29 18 13 15 25 39 50 57 60 58 59 60 57 56 58 59 63 64 67 70 70 70 75 80 82 82 81 80 81 80 80 81 78 72 69 70 76 79 79 76 74 74 74
40 35 32 32 35 35 34 33 34 39 42 43 48 55 59 60 59 57 50 46 50 49 41 31 28 34 38 38 37 33 33 35 35 36 39 40 42 44 45 46 46 48 46 35 21 10 7 12 25 40 52 57 61 63 63 61 60 61 61 62 65 67 68 69 73 77 78 77 77 78 80 81 82 82 76 67 63 64 71 77 77 75 75 77 75
40 39 37 36 37 36 35 35 35 40 48 50 52 57 58 56 53 51 49 44 43 45 39 30 29 35 39 39 38 36 34 35 37 38 40 42 43 44 45 45 46 48 50 47 37 25 13 5 7 17 29 43 57 66 70 67 62 62 63 65 66 67 68 71 74 77 77 75 76 77 79 79 79 79 72 63 61 60 61 64 65 70 75 76 68
41 42 41 39 38 36 34 35 37 42 50 51 53 58 57 52 48 46 47 43 39 40 38 35 34 35 40 42 41 41 40 39 41 41 41 43 44 46 47 47 48 48 49 52 50 42 28 13 4 5 10 19 37 54 64 67 64 60 62 65 66 66 67 67 70 76 77 76 77 79 79 78 77 75 68 61 60 57 57 59 60 66 74 76 63
44 44 42 40 38 34 31 34 39 43 47 47 51 59 57 52 50 48 47 45 42 41 39 43 45 39 41 45 43 44 45 44 43 42 43 42 43 46 47 48 50 52 51 52 53 51 43 28 10 4 6 7 15 29 42 55 63 62 63 66 63 58 56 58 66 76 78 77 80 81 79 77 76 73 68 63 60 58 59 59 61 67 73 71 56
45 43 42 41 37 32 26 29 37 41 44 44 46 58 59 54 54 52 49 47 47 48 47 50 49 43 42 45 45 46 47 47 46 45 44 43 46 47 47 48 49 51 54 54 53 51 50 42 20 4 5 7 11 18 25 39 54 62 66 62 53 53 57 59 65 74 76 75 76 74 72 72 73 73 70 66 63 61 61 60 64 70 67 55 38
45 43 42 42 37 29 25 27 35 40 44 44 44 52 57 55 53 51 51 49 48 53 55 49 44 42 43 44 47 49 49 48 47 46 47 49 51 50 49 52 49 49 55 57 55 50 48 45 25 6 4 6 9 16 19 25 36 47 51 48 48 59 68 67 66 66 64 64 63 63 64 67 71 73 71 67 65 64 65 68 71 71 62 46 31
46 44 42 43 36 26 26 28 32 38 44 45 44 46 49 51 49 45 47 49 49 55 56 47 40 41 44 46 50 52 50 49 46 47 52 55 55 53 55 56 50 49 55 59 59 52 49 46 26 6 5 6 7 13 19 22 27 33 39 45 52 57 56 51 47 46 48 50 52 55 61 65 69 73 72 69 69 70 73 76 73 66 54 41 30
45 46 44 42 34 25 27 29 31 38 44 45 45 44 43 45 46 45 47 50 51 54 53 46 39 41 45 48 53 53 49 49 47 48 55 57 56 58 59 57 54 56 59 61 61 53 47 45 26 6 5 6 6 14 22 27 33 37 43 49 50 47 46 44 37 36 41 45 48 53 57 62 68 72 73 74 74 75 76 73 67 60 50 37 27
45 47 44 41 34 27 27 29 32 35 40 46 48 48 45 43 44 45 46 49 52 54 52 48 42 41 45 49 52 53 51 51 48 50 56 57 58 60 58 55 56 64 68 68 65 52 38 33 19 6 5 6 6 12 19 26 32 35 38 42 41 39 46 50 46 45 45 45 50 57 61 64 69 73 75 75 72 70 67 57 45 41 39 31 23
51 46 42 42 36 31 30 31 35 37 44 53 55 52 50 47 46 47 46 48 52 56 55 52 48 46 47 50 53 53 53 53 51 52 57 59 59 59 56 52 54 63 70 72 69 49 26 17 11 6 6 6 6 10 15 21 25 28 33 36 35 35 39 44 46 48 49 50 56 63 66 67 69 73 75 73 65 55 45 34 22 21 28 28 21
60 51 43 43 40 36 33 31 36 46 59 69 67 60 56 54 53 52 52 53 56 58 57 56 54 51 51 53 55 56 56 55 54 55 59 60 61 58 51 48 52 59 65 69 65 43 18 9 8 6 7 6 6 10 15 19 22 27 34 35 32 32 35 35 37 42 47 50 53 56 61 62 61 64 67 62 49 34 21 14 11 15 26 28 21
66 61 53 50 48 46 42 41 48 59 71 76 71 65 61 59 59 57 59 61 62 62 60 59 57 55 55 56 58 59 58 57 58 58 61 62 60 53 45 45 52 56 59 60 50 31 15 8 8 6 6 6 7 11 16 20 23 27 30 29 26 27 31 32 33 37 40 41 41 43 47 49 50 50 48 38 25 15 8 8 11 17 25 29 25
72 65 60 61 63 61 60 63 67 71 77 76 68 66 65 64 65 65 66 69 70 70 67 65 63 60 60 61 63 62 58 61 62 60 62 62 54 44 40 46 53 54 58 52 35 24 18 10 7 7 6 6 7 10 15 19 21 20 18 15 14 16 20 23 26 30 31 30 30 28 27 28 31 29 23 15 9 9 10 15 22 27 30 33 32
84 74 70 75 79 76 72 73 74 74 76 70 61 59 63 72 77 79 82 86 86 84 80 75 72 69 68 69 69 64 62 66 65 61 61 55 43 35 37 47 53 56 61 48 29 27 23 10 6 8 6 7 8 10 15 16 14 11 9 9 9 9 11 13 14 17 19 18 16 14 12 11 13 13 11 11 16 21 26 29 34 36 36 38 39
94 85 79 81 82 81 80 77 79 80 74 65 59 56 63 79 87 85 88 92 90 90 92 89 81 77 78 77 73 70 71 71 64 60 57 46 34 30 36 46 51 58 64 50 33 32 22 7 7 8 6 8 10 12 13 12 12 12 12 11 10 9 9 9 9 9 10 9 9 10 11 12 15 18 21 26 33 37 40 41 42 43 44 44 45
92 86 85 84 78 80 83 79 82 83 73 67 66 64 70 84 88 83 84 86 82 84 92 95 89 84 82 80 77 76 78 71 61 56 50 39 34 31 36 45 48 57 65 53 41 33 16 6 9 10 10 12 12 14 16 16 17 18 18 17 16 15 15 15 15 15 15 16 18 20 23 27 31 33 36 39 42 44 46 46 47 48 49 49 50
87 83 88 86 75 74 80 81 83 83 77 73 72 69 73 81 81 77 79 81 81 81 84 90 94 90 84 83 82 81 76 65 55 54 46 38 36 35 38 45 48 57 65 58 47 31 11 8 14 15 17 18 18 20 21 21 23 22 22 23 23 23 23 23 25 27 28 30 33 36 38 40 42 43 44 46 48 50 51 51 50 50 51 53 53
88 84 84 81 74 73 80 84 84 78 76 82 83 79 80 83 79 76 76 78 80 82 81 84 90 89 85 85 86 82 72 57 51 57 55 43 38 38 41 45 49 57 64 62 51 29 10 13 20 21 23 23 24 26 25 25 26 25 26 27 28 30 30 30 33 36 39 41 44 46 47 48 51 52 53 54 55 54 54 52 52 52 54 57 59
89 83 78 78 78 78 82 87 85 75 71 82 90 87 85 87 81 75 76 77 80 86 89 88 88 89 88 87 88 86 73 56 52 59 56 44 40 40 42 46 50 55 63 66 54 27 11 18 25 24 26 28 28 28 27 28 29 28 28 28 30 34 35 38 42 43 45 48 49 51 54 56 58 58 58 57 55 53 52 54 56 58 60 62 65
86 80 74 73 75 77 80 86 86 77 71 80 90 88 84 80 71 68 72 77 82 88 92 92 90 90 92 89 88 87 76 63 61 59 49 43 43 41 42 48 51 52 58 67 60 34 14 18 27 28 28 30 31 32 31 31 31 31 32 34 36 38 40 43 46 47 49 51 52 53 55 56 56 55 55 54 54 54 55 57 60 61 62 62 65
84 78 74 72 72 76 81 85 85 80 78 82 85 82 74 65 59 64 71 75 79 83 85 87 87 88 90 89 86 84 78 72 70 61 47 44 46 44 44 47 48 50 54 62 67 52 28 18 23 28 30 32 33 35 36 36 36 36 36 39 41 42 43 45 46 48 51 52 53 54 54 55 54 54 54 55 56 58 59 60 62 62 60 59 60
85 79 78 79 79 82 85 85 84 85 86 86 84 79 69 57 57 66 71 70 73 77 79 82 83 83 84 86 84 80 77 77 75 62 51 49 48 46 44 41 40 45 48 51 60 62 48 33 26 26 29 32 34 37 39 40 41 41 42 43 44 45 46 48 50 52 53 54 56 56 56 58 58 57 57 57 58 60 61 62 62 61 60 59 60
89 86 85 86 88 90 91 91 91 91 91 88 85 81 71 65 69 75 72 67 68 74 79 80 82 82 82 84 84 79 77 78 70 58 55 57 52 44 42 40 39 41 43 41 43 50 54 50 42 35 32 29 30 34 38 40 42 44 45 45 46 46 47 48 50 52 54 55 56 57 57 58 57 57 57 56 56 57 57 58 58 59 59 59 61
88 88 86 86 89 92 96 97 97 97 96 93 89 84 80 79 81 80 74 70 71 78 82 81 78 77 75 76 77 78 81 79 65 52 50 53 50 44 41 40 39 38 37 35 31 32 38 43 44 43 39 33 30 30 31 34 37 40 43 45 46 47 47 48 49 50 52 54 55 56 57 57 57 57 56 56 56 56 56 57 57 58 59 60 62
86 86 85 88 90 94 99 100 99 99 99 99 96 93 90 88 86 80 76 78 81 83 81 77 74 68 63 62 68 77 84 79 64 54 49 45 45 44 39 40 43 40 33 31 30 28 28 30 32 35 37 37 37 37 36 34 33 33 35 36 38 40 42 44 46 48 49 50 51 52 52 53 54 55 55 57 57 59 61 62 63 63 63 65 66
93 92 92 93 92 94 98 99 100 100 99 100 100 98 95 92 87 81 77 80 86 85 81 80 77 66 55 53 62 76 84 78 65 59 55 49 46 45 47 55 62 55 42 35 33 31 30 29 29 29 31 34 37 42 46 48 48 46 43 40 40 41 45 50 56 61 63 62 61 60 59 61 63 65 66 67 67 70 73 75 76 76 76 76 76
93 94 95 97 97 97 98 99 100 100 99 99 99 99 99 96 91 87 84 86 89 87 84 85 84 75 64 59 63 72 77 74 69 67 66 64 61 61 67 76 78 69 57 49 44 42 42 42 40 40 40 40 40 42 44 48 51 54 55 54 55 56 60 64 69 73 75 73 72 70 67 67 69 68 66 65 64 66 69 72 73 76 82 87 87
87 90 92 96 100 100 99 100 100 100 100 100 99 99 100 98 97 97 95 94 93 91 89 90 91 89 83 77 76 77 76 74 73 72 72 72 71 72 77 81 80 75 69 62 57 53 52 50 51 52 53 54 55 54 53 52 51 50 50 51 54 58 61 64 67 71 73 74 74 72 70 69 67 63 59 55 51 51 56 63 70 75 81 87 89
88 91 93 97 99 100 99 100 100 99 100 100 100 100 100 99 100 100 98 97 97 97 96 93 90 91 91 88 84 81 79 79 78 78 78 78 77 78 79 79 79 78 76 71 66 60 54 51 50 50 51 53 56 59 60 60 57 53 48 46 47 49 50 52 53 56 60 64 66 66 65 64 61 59 55 48 46 50 57 65 75 82 82 78 80
92 94 98 100 100 100 100 99 99 99 99 99 99 99 99 99 99 99 100 99 100 101 101 96 92 91 92 91 88 86 85 85 85 86 87 87 86 85 83 79 76 77 78 78 74 68 62 58 54 52 51 52 55 57 58 57 55 53 49 47 46 46 45 45 43 43 47 54 58 61 62 60 59 60 62 62 62 63 62 61 65 76 82 77 70
92 92 95 98 99 99 100 100 99 98 98 98 98 98 98 96 95 96 97 97 97 99 99 97 97 97 94 90 89 91 92 93 93 91 92 94 93 91 89 86 81 79 79 78 75 72 67 64 60 58 56 54 54 54 53 52 51 49 48 46 45 44 43 42 39 38 41 44 48 51 53 51 49 50 57 63 61 56 55 55 55 62 74 77 72
95 94 94 94 93 93 96 99 100 99 100 100 98 98 99 98 98 98 98 98 98 98 97 95 94 95 95 94 95 96 97 98 98 96 95 96 95 92 92 90 84 79 75 72 70 69 68 66 65 63 61 59 57 56 54 53 52 52 52 51 50 49 47 46 45 44 43 42 41 42 40 39 38 36 36 40 40 40 46 55 57 60 65 69 73
89 90 92 92 90 89 92 97 99 99 99 99 99 99 99 99 100 100 99 100 99 99 98 97 92 88 87 87 89 92 96 98 99 98 97 96 91 87 85 83 78 74 72 70 69 69 69 70 69 68 67 66 64 63 62 62 61 59 58 55 53 50 48 46 45 42 39 36 33 32 30 29 29 29 28 31 35 35 35 39 49 60 65 68 73
80 83 87 90 93 95 97 99 99 99 100 100 100 100 99 99 99 99 99 100 100 100 101 101 99 96 93 90 87 87 89 90 90 90 90 89 86 82 80 78 77 76 74 72 71 71 71 71 70 71 70 70 69 68 66 65 62 58 54 51 48 44 40 36 34 32 31 30 29 27 26 25 24 25 28 31 35 35 30 29 42 58 70 77 78
82 86 87 88 91 95 97 97 97 97 97 96 94 92 91 90 90 91 93 94 96 96 94 92 92 93 93 92 89 87 86 84 82 82 82 81 81 80 79 78 78 77 76 75 74 74 74 74 74 75 74 72 70 66 63 59 54 50 47 45 43 41 39 36 36 35 35 34 33 31 30 29 28 28 30 34 37 37 33 33 44 58 68 73 73
90 93 92 91 93 93 94 95 95 94 93 92 90 90 90 89 88 89 91 92 92 91 89 87 85 83 82 83 83 82 82 82 81 81 81 81 81 80 80 79 78 77 77 75 74 72 70 68 66 64 63 61 58 54 51 48 46 44 42 41 40 39 38 38 38 38 37 35 34 32 31 31 30 30 33 37 40 42 43 48 56 62 62 60 59
96 98 96 94 95 95 95 95 95 95 95 95 94 94 94 92 91 91 92 92 92 91 89 87 83 79 77 77 77 77 77 77 76 76 76 75 75 74 73 71 70 69 67 64 62 60 56 53 51 49 48 46 45 43 42 40 39 38 37 36 36 36 37 37 36 36 37 35 33 32 31 31 32 35 39 42 43 47 54 62 63 59 54 51 49
88 90 89 89 91 92 92 91 90 90 90 90 88 88 87 87 86 86 86 85 84 82 81 79 77 75 73 72 71 71 70 68 67 65 64 62 61 60 59 57 56 54 53 51 49 48 45 44 42 39 37 36 34 33 32 31 31 31 31 32 32 33 34 35 33 33 33 32 31 31 32 32 35 42 48 51 50 52 59 64 61 53 52 52 47
80 81 83 86 88 89 89 89 88 86 85 84 82 81 80 79 77 75 74 72 70 69 67 65 63 62 60 59 58 56 55 54 53 51 49 48 47 45 44 43 42 41 40 38 37 36 34 32 30 28 26 24 23 21 20 20 20 20 21 22 23 24 25 26 27 28 28 28 29 30 31 34 38 44 51 55 54 54 58 62 59 52 52 54 51
82 83 82 82 83 85 85 84 84 83 81 79 77 74 72 69 66 63 61 58 56 54 53 51 49 48 46 45 44 42 42 41 39 39 38 36 34 33 31 30 29 28 26 25 23 22 20 18 16 15 13 11 11 10 9 9 8 8 9 9 10 11 12 12 14 15 16 18 21 22 26 31 35 42 50 55 57 56 55 56 55 52 53 56 55
87 88 87 84 82 81 79 77 75 73 71 69 65 62 59 56 53 50 46 43 42 40 38 36 35 33 32 31 30 28 28 27 26 25 23 21 19 18 16 15 14 13 12 12 11 9 9 8 8 7 7 6 6 7 8 9 9 9 9 9 8 8 8 7 8 8 9 9 10 11 14 17 23 33 40 46 55 63 62 57 54 52 53 57 56
82 84 85 84 82 81 79 77 74 71 68 65 60 58 56 53 48 42 38 34 31 27 23 21 18 16 15 14 14 13 12 12 12 11 9 9 9 9 8 7 7 8 9 10 10 10 10 11 10 10 11 10 9 10 12 13 14 14 14 15 15 15 14 13 13 12 12 10 9 9 9 8 10 16 23 31 47 66 72 66 61 59 59 60 57
69 68 68 68 69 71 74 75 77 76 71 66 63 60 54 45 37 32 28 25 21 16 12 11 10 10 11 11 11 12 11 11 11 11 12 12 13 15 17 16 15 16 17 17 18 18 18 18 17 16 17 16 16 16 16 16 16 17 16 17 18 18 18 18 18 18 18 17 17 15 14 13 10 7 10 19 34 57 76 80 75 73 72 67 60
Wind_Speed
18 13 10 9 9 7 5 5 7 8 7 7 6 6 6 6 6 6 5 8 10 12 13 15 17 18 17 15 12 11 10 10 10 9 9 9 9 9 9 9 10 12 13 13 13 14 14 13 12 11 11 11 10 9 9 9 9 9 9 9 10 11 11 10 9 8 7 6 7 7 8 8 7 6 5 4 4 4 4 4 4 5 6 6 6
20 15 11 10 9 7 5 6 8 7 6 6 6 6 7 7 7 6 6 9 12 13 14 15 16 15 14 12 11 11 11 11 10 9 9 9 8 8 7 7 9 11 11 12 12 12 13 12 12 12 12 11 10 10 10 10 10 10 10 10 10 10 10 10 8 8 8 7 7 7 7 8 7 6 5 4 4 4 5 5 6 7 7 7 7
21 15 12 11 9 7 6 7 9 8 6 6 7 8 8 8 8 8 9 12 14 15 16 17 16 15 14 13 13 13 13 13 12 10 9 8 7 7 6 5 6 8 9 10 10 10 11 11 12 12 11 11 11 11 11 11 11 11 10 11 11 10 11 10 9 9 9 9 8 8 8 8 7 6 5 4 4 5 6 6 7 9 9 8 8
21 16 13 11 9 6 5 8 9 7 6 6 8 9 9 7 8 9 11 13 14 16 18 17 16 16 17 16 16 15 14 13 11 10 8 7 6 5 5 4 4 5 6 8 8 9 9 10 11 11 12 12 13 12 12 11 12 11 11 12 12 11 12 11 11 10 10 9 8 9 9 8 7 7 6 5 5 6 5 6 8 8 9 8 7
19 15 13 11 7 5 5 9 9 6 6 7 9 10 9 8 9 11 12 13 14 16 17 16 16 17 18 18 17 16 15 13 11 10 8 6 6 5 4 3 4 4 5 6 7 9 9 10 10 11 12 13 13 13 12 12 13 12 13 13 13 13 14 13 12 11 10 9 9 9 10 9 8 8 8 6 6 6 5 6 8 8 8 7 7
16 12 11 10 7 5 6 10 8 7 8 10 12 11 10 10 11 12 12 12 15 17 17 16 15 16 16 16 16 15 13 12 11 9 7 6 5 5 4 4 3 4 4 5 7 8 9 10 10 10 12 13 13 13 13 12 13 14 14 14 14 14 15 13 12 11 10 10 10 10 11 11 10 9 8 7 5 6 6 7 9 8 7 8 8
18 15 13 11 7 5 7 9 9 10 10 12 14 13 11 12 12 12 12 12 15 18 18 17 17 17 16 15 14 13 11 9 9 8 7 5 4 3 3 3 2 2 2 3 5 7 9 10 10 10 11 13 13 13 13 13 14 15 15 15 14 15 15 13 12 11 11 11 11 11 12 12 10 8 7 6 5 5 6 8 10 9 9 9 9
20 17 15 11 8 7 9 10 11 13 12 13 14 13 13 14 13 13 12 13 17 19 19 19 19 18 17 16 14 13 10 7 6 6 5 4 3 1 0 1 1 1 1 1 2 4 6 9 11 11 11 11 11 12 12 13 13 14 15 14 14 14 14 13 12 12 12 12 11 11 12 12 10 8 8 7 7 7 8 9 9 8 9 10 9
19 16 14 11 10 11 12 12 13 14 14 14 14 14 15 15 14 14 14 15 18 20 20 19 19 18 17 15 13 10 8 6 4 3 3 3 2 0 2 3 4 4 3 2 2 2 2 5 8 10 11 11 11 11 11 12 13 14 14 14 14 14 13 13 12 12 12 12 12 12 12 12 10 9 8 8 8 8 9 9 8 8 9 9 9
20 18 15 13 13 14 15 15 15 16 17 16 15 16 17 17 16 15 16 17 19 20 20 19 18 18 16 14 11 8 7 6 4 3 2 1 1 2 4 5 7 7 6 4 3 3 3 3 4 7 9 11 11 11 11 12 12 13 13 14 14 13 13 12 12 12 12 11 12 12 12 12 10 9 8 8 8 9 10 10 8 7 8 9 10
22 20 17 16 17 17 17 17 16 18 19 17 17 19 19 18 17 16 17 18 19 19 19 18 17 17 16 13 11 8 7 5 4 3 2 2 4 5 7 7 8 9 9 7 5 5 4 4 4 5 7 10 12 13 14 13 13 12 12 13 13 12 11 11 11 10 11 11 11 11 12 12 11 11 10 8 8 9 10 10 8 7 8 9 10
23 21 19 19 20 20 19 18 18 19 20 19 19 21 20 19 18 17 17 19 20 19 19 18 17 18 17 14 12 10 7 6 5 4 4 5 7 8 8 8 8 8 10 10 8 7 6 5 5 5 7 9 11 13 15 15 14 13 12 12 11 11 10 10 10 10 10 10 11 12 12 12 11 11 10 9 9 9 9 9 8 7 8 9 10
24 22 21 21 22 22 20 19 19 20 20 19 19 22 22 20 19 17 17 19 19 19 19 18 17 18 17 15 12 11 9 8 6 5 6 8 9 10 10 9 9 7 8 10 10 9 8 7 6 6 7 7 8 9 13 15 15 14 13 12 11 10 9 9 10 10 10 10 11 12 12 11 11 10 9 9 8 7 7 7 7 7 8 9 9
24 23 22 22 22 22 21 20 20 20 20 20 20 22 22 21 20 19 18 19 19 19 18 17 18 18 17 14 12 11 10 9 7 6 8 10 11 11 11 11 10 7 5 7 10 10 9 8 7 7 6 6 5 6 10 13 15 14 13 11 10 9 9 9 10 10 10 11 11 11 11 10 9 8 8 7 6 6 6 6 6 7 8 8 9
25 24 23 23 24 23 22 21 20 21 21 21 20 21 22 21 20 19 18 18 18 19 18 17 19 19 16 14 13 12 11 10 8 7 8 10 10 10 11 12 10 7 5 6 7 9 10 8 7 7 6 6 5 6 8 11 12 12 12 10 9 8 9 9 10 10 10 11 10 9 9 8 6 6 6 5 5 5 6 6 7 7 7 7 9
25 25 25 25 26 25 23 22 22 22 22 22 21 21 21 21 20 19 18 17 17 18 18 18 19 18 16 15 14 14 13 11 9 8 8 9 9 10 11 11 10 7 7 7 7 8 9 9 8 8 8 7 7 8 9 10 11 11 11 9 8 7 7 6 7 8 9 9 8 7 6 5 4 5 4 4 4 5 7 7 6 5 6 6 7
26 27 28 28 27 26 24 22 22 22 23 23 21 19 19 19 19 19 19 18 18 18 18 18 19 18 17 16 16 15 13 11 10 9 9 9 9 9 10 10 9 6 7 8 8 8 8 8 8 9 9 8 9 9 10 10 10 10 10 9 8 7 6 5 6 7 7 7 6 5 4 4 4 4 4 4 5 6 7 6 4 3 5 5 4
27 29 31 30 28 27 25 24 23 22 23 23 21 19 17 18 19 19 19 18 18 18 18 19 19 19 18 18 17 15 14 13 11 10 10 9 8 9 9 9 7 5 6 8 8 7 7 7 8 8 9 9 9 10 9 10 10 9 8 7 7 8 8 7 7 7 7 6 5 5 5 4 4 4 4 5 6 6 6 5 3 0 3 4 4
30 33 33 31 29 27 26 26 24 23 23 24 22 20 19 19 19 19 19 19 18 17 18 20 20 20 20 19 18 16 15 13 11 11 10 9 8 9 8 8 7 5 6 7 7 6 6 7 7 8 10 10 10 10 9 9 9 9 8 7 8 8 8 8 8 8 7 6 6 5 5 5 5 5 6 6 6 5 4 3 1 3 4 5 6
32 35 36 35 31 28 28 28 27 26 26 25 23 22 20 20 20 20 20 20 20 19 19 20 21 21 21 21 19 18 16 14 12 11 10 9 8 8 8 7 7 5 7 7 7 6 5 6 7 8 9 10 9 9 9 9 9 9 9 8 8 7 7 7 7 6 5 5 5 5 5 5 5 5 6 6 6 4 3 1 2 4 5 5 6
34 37 37 35 30 28 28 27 27 27 26 25 23 21 21 21 21 21 22 22 22 22 21 21 21 21 22 21 19 18 16 14 12 11 10 9 9 8 7 7 6 5 7 8 7 6 5 6 7 9 9 8 8 9 9 9 9 9 8 7 7 7 6 5 5 4 3 2 2 3 3 3 4 4 4 4 3 2 1 0 2 3 3 4 5
35 37 36 33 28 27 26 24 23 22 21 21 22 21 21 23 24 25 26 26 26 25 24 23 23 22 22 21 20 19 16 14 12 10 10 10 9 8 7 6 6 5 7 9 7 6 6 7 8 9 9 8 8 9 9 9 9 9 9 8 8 8 7 6 5 4 3 1 1 1 2 2 2 2 2 1 1 1 2 2 2 2 2 1 2
34 33 32 28 25 23 24 22 20 19 17 16 19 22 23 25 28 28 29 29 29 27 25 24 23 23 21 20 21 20 17 13 10 10 10 9 8 8 6 6 6 5 7 10 8 6 7 7 9 10 10 10 10 10 10 10 10 10 10 9 9 9 9 8 7 6 4 3 3 3 3 3 4 4 3 3 2 2 3 3 4 5 4 4 4
30 26 23 21 19 19 20 19 16 17 16 14 17 22 25 26 26 25 26 27 26 26 25 22 22 23 23 23 22 20 15 12 10 11 11 9 8 7 6 6 6 5 7 11 9 7 7 8 10 11 11 11 11 11 11 11 11 11 10 10 9 9 9 9 9 8 7 5 5 5 5 4 4 3 3 2 2 3 3 4 5 6 6 6 6
23 20 19 19 18 19 21 20 17 17 18 17 17 20 22 24 22 21 22 24 23 22 22 21 22 24 24 24 22 18 15 13 11 11 10 9 8 7 6 6 7 5 7 11 10 8 8 10 10 11 12 12 12 12 12 11 11 11 10 10 10 9 9 10 10 9 8 7 6 6 5 4 3 1 0 1 2 3 4 4 5 6 6 6 7
19 19 20 19 20 21 22 20 17 15 18 20 18 17 19 21 20 18 18 19 19 22 22 20 21 22 22 23 21 17 15 14 12 10 9 9 7 7 6 7 7 6 7 11 12 9 10 12 11 11 12 12 12 12 11 11 11 10 10 10 10 10 9 9 9 9 8 7 5 4 3 2 2 2 2 3 4 5 6 6 7 8 8 8 9
19 19 19 19 20 21 22 20 14 12 17 20 18 17 17 16 15 14 13 14 17 21 21 19 18 19 19 20 19 15 14 14 13 11 10 10 9 8 7 7 8 7 8 12 13 12 12 13 13 12 12 12 12 11 11 11 10 10 10 10 10 10 9 8 8 7 7 6 5 4 4 4 4 5 6 6 7 8 8 8 8 8 9 10 11
18 19 19 20 20 20 20 19 16 15 17 19 17 16 16 15 13 11 10 12 16 18 16 14 15 16 14 13 13 12 13 14 13 12 12 12 11 9 8 8 8 8 8 12 15 15 14 14 14 13 13 12 12 12 12 11 10 10 10 9 10 10 10 9 9 8 8 7 7 7 7 7 8 8 9 9 10 11 11 11 10 9 10 12 13
19 19 20 21 22 21 19 17 17 18 19 19 17 16 16 16 15 12 11 14 15 15 13 12 13 13 11 12 14 15 15 15 14 13 14 14 13 10 9 9 9 8 8 10 13 15 15 15 14 13 13 12 12 12 12 12 12 11 11 11 11 11 11 11 11 10 10 10 9 10 10 10 11 12 12 13 13 14 14 14 14 14 14 15 16
18 19 19 19 20 20 19 17 18 20 21 20 17 16 15 16 14 14 15 17 17 16 14 14 15 14 13 14 17 17 16 16 15 15 15 14 13 12 11 11 10 10 10 10 11 13 14 15 15 14 13 12 12 12 13 13 13 13 13 13 13 13 13 13 13 13 13 12 12 13 13 13 14 15 15 16 16 16 17 17 18 19 19 19 19
18 18 17 17 17 18 18 19 18 19 21 19 17 16 16 15 15 17 19 19 17 15 13 13 15 16 15 16 17 18 17 17 17 17 16 14 14 14 14 14 13 13 12 12 12 12 12 14 14 14 13 13 13 13 13 13 14 14 15 15 15 15 16 16 16 15 15 15 15 16 16 17 18 18 19 19 20 20 20 21 21 22 22 22 22
18 18 17 17 17 18 18 19 19 19 20 19 18 18 16 16 18 20 20 18 15 13 12 13 14 15 15 16 17 18 19 19 19 19 18 16 16 16 16 15 16 15 14 13 13 13 13 14 15 15 15 15 15 15 15 15 15 15 16 16 17 17 18 18 18 18 18 19 19 19 20 21 21 22 23 24 24 24 24 24 25 25 25 26 26
16 18 18 17 18 19 19 20 19 19 19 19 19 20 19 20 22 22 20 17 16 15 14 14 14 14 15 15 16 18 19 19 18 19 20 19 18 18 17 17 17 16 15 14 13 13 14 14 15 15 15 16 16 17 17 17 17 18 18 19 20 20 20 20 21 21 22 22 22 23 23 24 25 25 26 27 27 27 27 27 27 27 28 28 28
11 12 13 14 16 18 19 19 18 19 19 20 21 21 22 22 22 22 20 18 17 16 17 18 16 15 15 16 16 18 19 20 20 20 21 22 21 20 21 20 18 16 16 16 15 15 14 15 15 16 16 16 16 17 18 19 20 20 21 22 23 23 23 23 23 24 24 24 24 25 25 25 26 27 28 29 30 30 31 31 31 31 31 31 31
6 7 8 10 11 13 14 15 15 17 18 20 21 21 21 21 20 19 18 17 16 16 17 19 17 15 16 17 18 19 21 22 22 22 23 23 23 23 23 21 18 17 17 17 16 16 16 16 16 17 17 17 17 18 19 20 21 22 23 25 26 26 27 27 27 26 26 26 26 26 26 27 28 29 30 30 31 32 33 33 32 32 33 33 34
4 6 7 7 8 7 7 9 12 14 15 17 19 18 18 19 17 16 16 16 17 17 17 18 17 17 18 18 19 20 22 23 24 25 26 25 24 24 23 21 19 19 19 19 19 19 18 18 18 19 19 19 19 20 21 21 22 23 24 25 26 27 29 30 30 30 30 30 29 30 30 31 31 31 31 30 30 31 33 34 32 32 32 33 35
5 6 7 7 7 6 5 5 8 10 12 15 17 18 18 17 16 16 16 16 17 17 17 17 17 18 19 20 22 23 24 25 26 27 27 26 25 24 24 23 22 22 22 22 22 22 21 21 21 21 21 21 21 22 23 23 24 24 24 25 25 26 27 27 28 28 29 30 31 32 32 33 33 33 32 31 31 32 34 35 35 34 33 34 34
6 6 7 8 8 8 7 6 7 9 10 11 12 13 14 15 16 16 16 17 17 17 18 19 19 19 19 20 22 24 25 26 27 26 26 25 26 26 25 25 25 24 24 24 24 24 23 22 22 22 22 22 22 23 24 24 25 25 26 26 26 27 27 27 27 27 28 29 31 32 33 34 35 35 33 32 33 34 35 36 36 36 36 35 35
6 7 8 9 9 9 8 7 7 9 10 10 10 9 10 11 12 12 12 12 13 15 16 18 20 21 21 22 23 23 23 23 24 23 23 24 25 25 26 26 25 26 25 25 25 24 24 24 24 24 24 24 24 24 25 25 26 26 28 28 29 30 30 30 30 30 31 31 32 33 34 36 37 38 36 35 35 36 37 37 37 38 39 38 36
7 8 10 11 12 12 11 10 10 10 11 12 12 12 13 13 13 13 13 12 12 13 13 14 15 18 19 21 22 22 22 22 23 22 21 21 21 22 24 25 25 26 26 26 26 26 25 25 26 26 27 27 27 27 28 29 29 30 31 32 33 34 35 35 35 36 36 37 37 37 38 39 40 42 41 40 39 39 38 38 39 40 41 40 38
10 11 12 13 14 14 15 14 14 14 14 15 15 16 16 16 16 17 17 17 17 17 17 17 17 17 18 19 19 20 21 22 23 23 23 23 22 22 22 23 25 26 26 27 27 27 28 28 28 29 30 31 32 32 32 33 34 35 37 38 39 40 41 41 41 41 42 42 42 42 42 43 43 44 44 43 43 42 41 41 41 42 42 40 39
13 12 11 12 13 14 15 16 17 18 18 18 18 18 18 18 19 19 20 21 21 21 21 21 21 21 22 21 21 22 22 22 23 24 24 25 24 24 24 25 26 27 28 29 30 30 31 32 33 34 35 36 38 38 39 40 41 42 44 45 45 45 45 46 46 46 46 46 46 45 44 44 44 45 45 44 44 43 43 43 42 41 41 39 38
12 11 9 10 12 13 15 16 18 19 19 19 19 18 18 19 19 20 21 21 22 23 23 23 23 24 24 25 25 26 26 26 26 27 27 27 28 28 29 30 31 32 33 34 34 36 37 38 39 40 41 43 44 45 46 47 47 48 48 48 48 48 48 49 50 51 51 50 49 48 46 45 44 45 45 45 44 43 44 43 42 41 40 38 37
9 9 10 11 12 13 15 15 16 17 18 18 17 17 17 18 18 19 20 20 22 22 23 24 24 25 26 27 27 28 29 29 30 31 31 32 33 33 34 35 37 38 39 40 41 42 44 45 45 46 46 47 48 49 49 50 50 50 50 50 51 51 51 52 53 53 53 53 52 51 49 47 46 45 45 45 44 43 43 42 40 38 37 36 36
9 11 12 13 15 16 17 17 18 18 17 17 17 17 18 18 19 20 21 22 23 24 25 26 27 27 28 29 29 30 30 31 32 32 34 35 35 37 38 39 40 42 43 44 45 46 47 47 48 48 48 48 49 50 51 52 53 53 54 55 55 55 55 55 55 55 56 56 55 53 51 49 46 45 45 44 43 42 41 40 37 35 35 35 34
10 12 14 15 16 18 19 20 21 21 21 20 20 21 21 21 22 22 23 24 25 27 28 28 28 29 29 29 30 31 31 32 33 34 35 36 37 38 39 40 41 42 44 45 46 47 48 49 50 51 52 52 52 53 53 54 55 55 56 57 57 57 57 57 57 58 58 57 56 54 52 49 47 44 44 44 43 42 41 40 37 36 35 35 33
10 12 14 16 17 19 20 22 22 23 23 23 23 23 23 23 23 24 24 25 26 27 28 28 28 29 29 30 31 32 33 34 35 36 37 38 39 40 41 42 43 45 46 47 48 50 51 52 53 53 54 54 54 54 54 54 54 55 55 56 57 58 58 58 58 58 58 57 56 54 52 50 48 46 45 45 45 44 43 42 40 38 37 35 34
13 13 13 15 17 19 20 21 22 23 23 23 24 24 24 24 24 24 25 26 27 27 28 29 29 30 31 32 33 34 35 36 37 38 40 41 42 43 44 45 46 47 48 49 50 51 51 52 52 52 52 52 52 51 51 51 51 52 52 52 54 55 55 56 56 57 57 57 56 55 53 51 49 48 47 47 48 46 45 44 43 41 39 37 37
14 14 14 15 16 17 18 19 20 21 21 22 23 24 23 23 23 23 25 26 26 27 28 29 30 31 32 33 34 35 36 37 38 39 40 41 42 43 44 44 45 45 46 47 47 47 47 47 48 48 48 49 49 48 47 46 47 47 47 47 48 50 50 51 51 52 52 53 53 53 53 51 50 50 49 48 48 47 46 46 45 44 42 41 40
16 17 17 17 18 18 19 20 20 20 21 22 23 24 23 22 22 23 25 25 26 26 27 28 29 29 30 31 32 33 34 35 36 36 37 37 38 39 40 40 40 40 40 40 40 40 40 41 41 42 42 44 44 43 41 41 41 41 41 41 42 44 45 46 45 45 46 46 48 48 48 49 49 50 50 49 47 46 46 47 46 45 43 43 40
17 17 18 18 19 20 21 21 21 21 21 23 24 24 22 21 21 23 24 24 24 25 25 25 26 26 27 27 28 29 29 30 31 31 31 31 30 30 32 33 33 33 33 32 33 34 34 35 36 37 37 37 37 37 37 37 37 37 37 37 37 39 41 42 41 41 40 40 41 41 42 44 46 47 49 49 47 45 46 46 47 45 42 39 36
Wind_Direction
215 205 203 228 245 261 273 264 252 251 251 241 227 220 211 190 182 192 182 165 167 165 161 163 166 165 161 157 154 161 174 182 189 198 204 208 210 214 219 218 217 220 223 223 225 227 226 224 227 229 225 219 219 224 223 223 219 212 211 209 199 192 193 197 200 210 214 203 194 198 210 216 218 222 225 224 229 248 266 269 273 277 279 283 289
213 204 207 225 235 254 268 251 239 236 230 225 219 207 194 182 179 183 165 154 156 155 158 159 159 159 158 156 158 165 169 170 174 181 188 191 189 192 199 203 204 207 213 216 219 224 224 221 222 226 222 215 217 220 221 222 212 203 205 205 201 197 194 197 204 214 223 225 217 207 205 211 216 222 231 239 251 267 271 277 284 287 291 294 296
212 205 208 217 227 254 262 236 231 231 217 209 207 194 187 187 183 172 158 156 155 154 159 160 159 160 160 160 159 158 156 157 160 163 169 172 171 177 181 183 193 200 207 212 217 223 225 221 221 224 222 217 219 217 220 222 210 203 206 207 207 205 204 210 214 216 222 228 226 216 207 209 219 228 235 245 266 272 270 283 290 293 299 299 297
212 205 203 210 228 260 259 228 227 237 226 204 194 185 184 192 185 167 160 163 161 159 162 164 163 162 159 157 155 152 152 152 150 147 145 145 145 155 161 159 168 188 202 207 213 222 225 222 221 224 222 219 220 218 218 217 210 208 210 211 214 213 211 216 222 223 224 224 223 222 220 223 232 238 242 249 266 269 271 284 288 292 296 293 290
212 204 201 207 232 260 238 218 216 225 213 189 182 182 183 187 180 166 162 168 170 166 165 162 161 161 157 152 151 150 151 150 146 139 136 134 129 126 130 135 148 177 202 207 209 216 222 223 221 223 224 221 220 219 218 215 211 210 210 210 215 216 212 214 221 224 227 228 224 226 232 235 236 238 243 250 265 276 282 284 284 289 294 288 284
209 206 204 206 227 238 214 211 207 201 195 180 177 182 181 182 179 169 166 174 174 168 163 159 157 157 152 148 148 149 150 149 144 138 138 136 124 111 104 102 124 164 196 208 209 211 218 224 224 224 226 222 220 221 220 216 211 210 209 210 214 216 216 218 222 225 228 231 230 232 237 238 236 239 244 248 263 280 278 270 271 276 285 288 286
197 195 199 204 219 215 205 208 195 185 190 182 178 181 178 178 180 174 171 176 172 167 163 159 156 154 151 148 148 151 152 150 144 139 137 132 118 101 92 89 105 145 185 207 215 215 217 221 222 223 223 221 220 220 219 217 212 209 210 213 215 218 221 222 223 225 229 232 234 237 240 243 245 247 249 252 262 271 263 257 258 264 277 285 283
191 191 194 199 203 194 198 204 188 178 184 184 180 181 176 178 184 181 175 173 170 168 164 160 158 158 155 154 157 160 160 156 148 139 132 130 125 112 6 343 327 317 317 290 250 229 220 219 220 220 219 218 219 219 220 221 217 213 214 216 217 219 223 226 226 226 229 234 239 243 246 248 249 247 251 264 274 270 259 253 253 262 278 284 278
193 195 194 194 192 189 192 197 187 176 177 181 180 179 177 180 186 183 177 174 171 169 166 163 161 159 158 162 170 175 173 166 163 152 138 136 142 207 289 295 295 299 313 332 329 299 244 221 219 220 220 216 216 220 222 223 221 216 214 215 216 218 223 227 230 233 236 238 242 246 247 246 245 245 254 272 278 272 261 256 256 260 269 275 276
194 195 192 192 189 188 190 190 184 173 173 179 181 179 178 180 183 181 178 177 175 173 171 169 165 162 165 173 179 185 187 181 181 183 176 186 304 310 302 293 286 282 282 285 292 299 289 247 214 214 219 217 215 219 221 220 220 217 214 214 215 218 223 228 233 236 238 240 242 243 242 240 238 238 248 263 272 272 267 262 264 264 263 266 272
194 190 188 189 188 189 189 184 179 174 174 179 181 181 181 180 179 178 178 179 179 179 178 175 172 170 172 178 181 183 189 189 195 217 240 288 313 319 314 304 290 276 267 262 259 267 276 270 234 205 207 212 214 217 220 220 218 217 216 215 217 219 224 230 235 235 236 237 240 241 239 239 238 239 245 251 256 260 261 263 268 266 261 262 268
190 187 187 189 190 191 187 179 179 179 177 180 183 183 183 182 180 177 179 182 182 183 183 183 183 181 179 180 182 185 189 196 212 243 272 298 309 314 313 309 301 279 258 250 249 253 261 271 258 222 207 208 212 216 220 220 218 217 218 220 224 229 233 235 234 234 235 234 236 241 243 245 247 250 252 252 255 258 259 265 269 263 258 261 266
187 186 188 191 194 194 187 180 181 182 181 184 185 185 186 185 183 179 181 185 187 187 188 186 188 189 186 183 185 188 192 204 225 257 287 301 304 306 307 306 305 294 258 241 241 246 252 266 269 243 220 211 208 211 215 216 215 215 219 225 231 236 236 235 230 229 232 233 237 245 250 253 255 256 255 255 265 272 269 271 272 269 268 269 272
186 188 191 194 196 194 187 181 182 183 184 188 188 188 189 189 187 183 181 186 189 189 189 187 189 193 190 187 189 194 201 217 236 267 295 304 303 304 305 304 302 299 268 239 239 241 241 251 263 253 234 218 207 202 202 205 209 212 217 222 225 227 228 228 228 230 236 239 241 247 251 252 254 255 255 259 272 276 272 276 280 279 280 279 279
187 190 192 194 196 194 187 183 184 186 187 189 190 190 191 192 192 189 184 186 190 191 192 190 190 195 194 190 194 201 212 225 241 274 299 303 303 304 303 302 298 289 264 238 237 240 235 233 238 235 226 215 201 190 183 184 193 201 205 209 214 224 230 230 229 228 233 235 236 239 242 242 244 249 251 256 267 271 273 280 284 285 285 282 280
189 190 191 194 197 194 188 187 189 189 189 192 194 192 192 194 195 194 191 190 192 194 194 192 193 199 200 198 203 211 220 232 245 274 297 300 300 302 301 301 298 278 249 234 232 237 235 228 220 212 206 201 191 184 179 177 183 191 194 199 208 217 224 223 214 209 213 218 217 218 223 221 220 228 234 243 257 267 273 280 289 288 278 274 275
191 190 191 193 197 195 190 191 194 193 193 194 194 194 194 195 197 199 199 198 197 196 196 196 199 205 207 206 212 219 226 236 248 271 291 292 292 295 296 299 297 269 235 230 231 233 236 229 215 201 194 192 188 185 183 183 186 190 191 193 196 195 191 186 182 185 191 195 193 188 186 185 192 204 219 238 255 270 278 290 312 293 261 253 253
192 192 193 196 199 197 192 193 196 195 196 195 193 193 195 197 202 206 208 206 203 199 199 203 206 211 213 214 220 225 230 238 251 272 285 283 281 283 287 294 292 256 221 222 227 233 241 230 208 191 187 185 185 183 180 179 179 180 180 180 179 174 171 170 170 171 172 173 175 170 171 180 188 199 222 242 257 272 281 294 326 286 208 207 204
194 196 197 199 201 199 195 196 196 194 194 193 191 193 196 199 202 208 212 213 209 205 204 207 212 215 216 220 226 229 233 242 257 274 281 276 270 273 280 288 286 249 213 211 218 228 241 231 205 189 187 184 180 177 174 172 171 170 170 170 170 166 163 163 164 165 164 165 170 171 174 190 199 205 223 242 254 265 273 276 243 147 165 186 197
198 200 200 202 202 200 199 198 196 193 192 190 190 194 198 202 205 207 211 214 213 210 209 210 214 217 220 225 229 230 235 246 259 272 278 270 263 266 274 282 284 254 216 204 204 215 228 221 202 191 191 184 174 172 172 171 169 166 166 166 162 156 152 155 155 154 155 156 163 165 170 191 208 217 228 243 254 262 265 230 169 160 172 190 205
202 203 202 201 199 201 203 200 195 193 189 185 188 195 200 207 210 210 213 215 214 212 210 213 216 218 221 225 227 229 235 247 257 265 267 259 255 262 269 276 281 260 223 204 196 205 214 206 193 189 190 181 168 167 169 168 163 158 154 151 144 137 133 137 136 133 134 144 160 159 159 181 204 222 236 250 265 283 304 337 121 134 155 178 203
207 205 203 198 195 202 207 204 199 197 189 185 190 199 204 209 212 211 211 213 214 212 209 209 211 215 222 226 227 228 234 243 252 256 252 246 248 257 266 271 278 261 222 205 198 204 211 198 184 180 179 171 162 162 161 157 154 148 143 140 134 127 123 121 122 125 131 145 162 147 132 137 144 166 192 177 103 43 16 360 17 51 71 132 223
214 208 205 202 199 204 210 208 202 198 193 191 198 206 210 212 214 213 212 213 214 211 209 207 209 215 222 226 225 227 229 234 243 246 241 239 243 252 260 266 276 264 213 200 200 208 211 193 175 170 167 162 159 158 156 154 152 149 145 142 137 131 129 129 128 129 132 137 134 128 123 112 104 109 115 110 87 45 15 353 340 338 341 338 317
219 211 210 213 212 217 224 223 210 200 200 200 203 211 217 220 222 224 226 226 222 215 211 209 213 217 218 221 225 226 222 218 225 232 231 231 240 249 252 256 269 261 206 194 197 204 200 183 169 165 161 158 157 156 159 160 157 153 150 144 139 138 139 138 134 132 133 133 131 127 122 113 104 102 97 72 38 9 352 336 324 319 321 322 318
217 208 213 219 219 222 229 232 224 213 214 215 209 211 217 222 227 236 243 246 244 236 224 215 217 221 217 219 223 217 205 202 208 219 224 225 235 246 244 243 254 250 206 191 189 193 187 174 168 167 161 156 157 159 164 165 160 157 156 148 143 144 147 143 135 134 136 134 132 129 124 120 115 108 60 342 330 321 310 302 299 300 302 303 303
207 206 213 215 215 216 219 226 225 212 217 224 216 211 217 218 220 229 241 250 257 257 246 232 228 229 223 221 219 205 193 197 200 206 218 221 227 235 231 231 238 234 208 192 187 186 183 175 171 172 166 159 159 163 168 168 163 163 163 156 149 149 150 145 138 139 143 144 147 148 144 150 176 225 248 262 270 272 274 278 284 288 293 297 296
201 205 212 213 213 214 215 222 224 212 218 225 218 212 215 214 213 221 233 246 253 252 248 240 237 236 230 224 220 204 193 198 202 206 215 218 221 225 222 223 228 221 201 192 189 186 184 180 178 179 174 167 165 168 171 173 170 168 169 164 159 157 156 154 154 158 164 171 180 188 198 214 226 235 243 251 259 265 270 273 275 281 290 295 293
213 211 216 222 222 220 218 221 225 221 218 217 210 203 204 209 216 223 233 248 251 246 240 237 237 240 232 212 203 195 192 201 208 212 216 217 217 220 217 218 223 217 198 191 192 191 189 187 187 188 185 179 175 176 178 180 181 178 176 175 173 172 173 175 180 185 190 196 203 213 224 232 240 246 253 260 267 273 277 276 275 279 288 293 293
223 223 225 229 228 225 223 223 225 222 216 211 205 200 209 222 228 227 230 240 244 240 234 230 227 228 216 194 189 191 195 203 208 213 219 219 214 213 211 211 217 215 203 193 194 196 195 194 195 198 199 195 189 188 188 188 191 192 191 191 191 192 193 195 199 202 205 210 217 226 235 244 251 257 262 268 272 276 279 279 280 284 290 293 293
229 232 231 231 229 228 228 226 222 215 212 213 210 209 224 236 231 225 227 230 231 230 228 227 222 215 204 198 198 196 197 202 205 212 219 218 212 208 204 204 208 207 202 196 194 197 201 203 204 206 210 211 209 205 202 200 202 204 207 208 207 209 210 211 213 215 218 223 229 237 245 252 258 263 268 272 274 275 277 279 281 285 288 290 289
234 235 233 232 230 230 231 230 224 217 216 219 219 220 229 234 225 220 224 226 225 225 221 219 217 207 195 193 197 199 200 201 202 208 213 211 212 212 206 204 203 201 200 197 193 196 202 208 211 212 216 221 223 223 221 219 217 217 219 221 221 222 223 224 227 230 232 236 239 244 249 254 259 264 267 270 271 272 274 276 278 281 283 285 286
241 240 238 236 234 233 232 232 230 228 228 227 225 224 224 225 222 221 223 221 216 213 215 216 210 201 199 201 201 202 203 200 201 208 211 209 211 213 212 210 207 204 203 201 201 202 205 210 213 214 217 221 226 230 232 232 234 236 237 238 238 239 239 239 241 244 246 248 251 253 256 258 261 264 266 268 270 271 272 273 273 275 277 279 281
253 251 247 244 239 234 231 231 231 233 233 231 229 226 221 222 224 222 218 213 206 205 209 208 201 200 210 213 207 205 207 204 206 214 217 215 214 216 219 219 215 212 211 210 211 213 213 215 218 218 220 225 229 232 235 236 237 240 243 246 248 249 250 250 251 252 253 254 256 258 259 262 264 266 268 269 271 272 272 272 271 272 273 274 275
265 266 265 262 254 244 237 233 231 229 227 226 230 230 226 225 226 223 219 214 212 210 203 198 200 207 217 220 215 210 208 208 214 221 222 221 220 221 225 226 224 222 223 223 222 221 222 223 224 225 225 227 232 236 238 239 239 240 242 244 246 248 250 251 252 253 254 255 257 258 260 262 265 267 268 270 271 272 272 273 273 273 273 273 273
279 285 288 290 283 268 255 247 242 236 229 225 228 232 232 231 227 224 223 218 215 213 204 201 207 212 214 219 220 214 210 212 218 222 223 224 225 226 228 229 229 231 235 235 231 228 229 229 229 230 231 231 235 236 237 239 241 241 242 244 245 246 248 249 250 252 255 256 258 260 261 263 264 266 268 270 272 273 273 273 273 274 275 275 273
297 296 296 301 305 291 266 251 245 240 236 232 229 229 232 235 231 223 220 217 217 219 216 215 220 220 217 219 221 220 218 219 221 222 220 221 223 226 229 231 233 235 238 239 237 235 235 234 232 233 233 234 237 239 240 241 242 243 245 246 247 248 249 250 251 252 254 255 256 257 259 260 262 263 265 267 269 271 272 272 272 274 276 275 272
286 289 289 287 288 283 261 239 227 222 227 232 230 225 224 226 224 217 213 213 215 220 223 226 227 223 219 219 222 224 225 226 228 225 220 218 221 225 230 234 235 237 238 238 239 239 239 239 239 239 239 239 239 241 243 244 246 248 250 251 252 252 252 252 251 251 252 252 253 254 255 257 259 260 262 266 268 270 272 274 274 273 273 273 273
265 268 271 271 272 272 265 248 221 206 209 217 219 219 217 213 212 212 210 210 212 214 218 226 229 227 225 224 227 230 229 230 233 230 223 222 223 225 230 234 236 238 240 241 242 243 243 245 246 247 248 247 246 248 249 251 252 254 256 256 257 257 256 255 254 253 252 252 253 254 256 258 260 261 262 265 268 270 272 274 275 274 273 273 273
254 252 256 259 263 266 263 254 232 212 212 220 224 230 232 226 223 224 219 216 216 214 215 220 223 225 227 230 235 240 241 241 244 239 230 224 223 224 229 233 236 240 242 243 245 247 248 250 251 253 255 255 254 254 256 258 259 261 263 264 265 265 265 264 263 262 261 261 260 261 262 265 268 269 268 267 267 269 270 272 273 273 273 273 272
259 254 254 255 257 259 257 251 241 229 225 231 238 245 247 242 238 235 232 230 230 231 233 232 228 227 228 229 234 242 247 251 253 253 246 237 230 228 230 233 237 240 242 244 245 247 249 253 255 257 260 261 261 261 263 265 266 267 269 270 271 271 272 271 271 270 269 269 269 269 270 271 272 274 274 273 272 271 272 273 273 273 272 271 271
271 266 260 254 251 253 252 250 247 242 236 235 237 240 241 239 236 235 236 238 240 243 247 250 250 249 246 241 239 240 243 246 248 249 247 243 240 239 238 240 243 245 247 250 252 254 256 258 260 262 264 266 266 266 267 268 269 270 272 272 273 273 273 272 272 271 270 271 272 273 273 273 272 272 273 273 273 273 273 272 271 271 270 269 268
284 275 258 241 235 239 244 245 247 248 246 244 241 238 238 239 241 242 243 245 246 247 248 249 251 253 252 250 248 246 244 244 245 244 242 241 242 243 245 247 250 252 254 257 259 261 263 265 266 268 270 271 271 271 271 271 271 272 273 273 273 272 272 272 272 272 272 272 273 274 274 273 273 272 271 270 270 270 271 269 268 268 268 268 268
281 271 250 234 232 236 240 243 245 246 248 249 247 244 244 245 246 248 249 249 250 251 251 252 253 254 255 255 255 255 255 254 254 253 251 249 248 248 249 250 252 253 255 257 259 261 263 265 267 268 269 270 271 273 273 273 273 273 273 272 271 271 270 270 271 272 273 274 274 274 274 274 273 272 270 269 269 268 268 267 266 266 267 267 267
261 252 241 239 243 245 245 248 250 250 251 252 252 252 253 253 253 254 255 256 257 258 258 259 259 259 259 259 259 259 260 260 260 260 260 259 259 258 258 258 259 259 260 261 263 264 266 267 267 267 267 268 269 270 271 272 272 272 272 271 271 271 270 270 270 271 272 273 274 274 273 272 271 271 270 268 267 266 265 264 264 265 265 265 265
243 244 245 248 250 250 250 251 253 254 253 252 254 256 258 259 259 259 260 260 260 260 261 262 263 264 264 264 264 265 265 265 265 265 265 265 265 264 265 265 265 265 266 266 267 267 268 268 268 268 268 268 268 269 269 270 271 271 271 271 271 270 270 270 270 270 270 271 272 272 271 271 269 269 269 267 265 264 263 262 261 261 261 262 262
235 238 243 246 245 246 247 248 250 252 253 254 256 257 259 259 259 259 260 260 261 261 262 263 265 267 268 269 269 269 270 270 270 269 269 269 268 268 268 268 268 268 269 269 269 270 270 270 270 270 270 270 270 269 269 269 269 269 269 270 270 270 269 269 269 268 268 269 269 269 268 268 266 265 266 266 264 261 259 258 258 259 260 261 263
256 247 246 245 244 245 244 244 245 248 250 252 253 254 255 256 256 257 258 259 260 262 263 264 266 267 268 269 269 270 270 271 271 271 272 272 272 271 271 271 271 271 271 271 271 271 271 272 272 272 272 272 272 271 270 269 269 268 268 268 268 268 268 268 267 267 267 267 267 266 265 264 263 262 262 262 261 258 256 256 257 259 261 261 261
277 268 261 256 252 250 248 247 246 246 247 248 249 249 250 252 253 256 258 259 260 261 262 263 264 265 266 267 267 268 268 269 270 270 271 271 272 272 272 272 272 272 272 272 272 273 273 273 274 274 274 274 274 274 273 272 271 270 269 268 268 267 267 266 266 266 266 265 265 265 264 262 261 259 259 259 259 256 253 254 256 258 258 257 259
280 275 269 264 259 255 253 252 250 249 249 249 249 249 250 252 255 257 259 260 261 262 263 264 264 265 265 266 266 266 267 267 267 268 269 270 270 271 271 272 272 273 273 273 273 273 274 274 275 275 275 275 275 275 275 275 275 274 273 272 270 269 268 267 266 265 265 265 264 263 263 261 260 258 257 258 257 255 252 251 252 254 255 255 259
274 270 266 264 261 259 258 256 254 254 254 253 254 255 256 259 260 260 261 262 263 264 265 266 267 268 268 268 269 269 269 269 269 269 270 271 272 273 273 273 273 274 275 276 276 276 276 276 276 276 277 277 277 278 278 277 276 276 275 274 272 271 270 269 268 267 266 265 265 264 263 262 260 258 257 256 255 254 254 251 249 250 253 254 256
270 267 264 261 258 256 255 255 254 254 253 255 257 260 263 263 263 262 263 265 266 267 268 269 271 272 273 274 275 275 275 275 275 275 274 274 275 276 277 278 279 280 280 280 281 280 280 280 279 279 279 279 280 280 280 279 278 277 275 273 272 272 272 272 271 269 267 266 266 265 264 262 261 259 258 256 254 255 256 251 245 246 250 251 250